Location: Wald
(31.7579°N, 86.6655°W)
Time: 21:19:54
(UTC+00:00)

ATLAS 2AS CENTAUR R/B - Pass Details

Date: 14 July 2020
Orbit: 930 x 1282 km, 63.7° (Epoch: 19 July)

Event Time Altitude Azimuth Distance (km) Brightness Sun altitude
Rises 03:30:48 0° 331° (NNW) 4,092 7.0 -26.7°
Reaches altitude 10° 03:33:39 10° 332° (NNW) 3,079 6.1 -27.1°
Maximum altitude 03:40:59 85° 60° (ENE) 1,098 2.6 -28.0°
Enters shadow 03:41:53 70° 138° (SE) 1,144 2.5 -28.1°
